Tucumcari, NM

3:59 PM MDT on May 26, 2017 (GMT -0600)
Tucumcari Municipal

Weather History for KTCC - November, 2012

Change the Weather History Date:

Wednesday, November 28, 2012

  Actual Average Record
Temperature  
Mean Temperature 48 °F -  
Max Temperature 68 °F 54 °F 81 °F (2014)
Min Temperature 28 °F 25 °F -2 °F (1976)
Degree Days  
Heating Degree Days 17    
Moisture  
Dew Point 14 °F    
Average Humidity 29    
Maximum Humidity 54    
Minimum Humidity 10    
Precipitation  
Precipitation 0.00 in - - ()
Sea Level Pressure  
Sea Level Pressure 30.12 in    
Wind  
Wind Speed 7 mph (WSW)    
Max Wind Speed 15 mph    
Max Gust Speed -    
Visibility 10 miles    
Events      
Averages and records for this station are not official NWS values.
T = Trace of Precipitation, MM = Missing Value Source: NWS Daily Summary

Daily Weather History Graph

Daily Weather History Graph

Search for Another Location

Airport or City:

Trip Planner

Search our weather history database for the weather conditions in past years. The results will help you decide how hot, cold, wet, or windy it might be!

Date:

Astronomy

Nov. 28, 2012 Rise Set
Actual Time 6:42 AM MST 4:42 PM MST
Civil Twilight 6:14 AM MST 5:10 PM MST
Nautical Twilight 5:43 AM MST 5:41 PM MST
Astronomical Twilight 5:12 AM MST 6:12 PM MST
Moon 4:59 PM MST (11/28) 6:41 AM MST (11/28)
Length of Visible Light 10h 55m
Length of Day
10h 00m
Full, 100% of the Moon is Illuminated
Nov 28
Full
Dec 6
Last Quarter
Dec 13
New
Dec 19
First Quarter
Dec 28
Full

Hourly Weather History & Observations

Time (MST) Temp. Windchill Dew Point Humidity Pressure Visibility Wind Dir Wind Speed Gust Speed Precip Events Conditions
12:53 AM 39.9 °F 36.7 °F 21.0 °F 47% 30.14 in 10.0 mi WSW 4.6 mph - N/A   Clear
1:53 AM 37.0 °F 31.0 °F 19.0 °F 48% 30.14 in 10.0 mi WSW 8.1 mph - N/A   Clear
2:53 AM 36.0 °F 29.0 °F 19.0 °F 50% 30.16 in 10.0 mi SW 9.2 mph - N/A   Clear
3:53 AM 32.0 °F 23.0 °F 17.1 °F 54% 30.17 in 10.0 mi WSW 11.5 mph - N/A   Clear
4:53 AM 33.1 °F 28.7 °F 15.1 °F 48% 30.18 in 10.0 mi West 4.6 mph - N/A   Clear
5:53 AM 28.0 °F 20.8 °F 12.9 °F 53% 30.22 in 10.0 mi West 6.9 mph - N/A   Clear
6:53 AM 28.0 °F 20.0 °F 12.0 °F 51% 30.24 in 10.0 mi West 8.1 mph - N/A   Clear
7:53 AM 36.0 °F 30.3 °F 15.1 °F 43% 30.23 in 10.0 mi WSW 6.9 mph - N/A   Clear
8:53 AM 45.0 °F 40.6 °F 14.0 °F 29% 30.22 in 10.0 mi West 8.1 mph - N/A   Clear
9:53 AM 51.1 °F - 8.1 °F 18% 30.20 in 10.0 mi West 8.1 mph - N/A   Clear
10:53 AM 55.9 °F - 7.0 °F 14% 30.18 in 10.0 mi WNW 6.9 mph - N/A   Clear
11:53 AM 61.0 °F - 6.1 °F 11% 30.13 in 10.0 mi West 8.1 mph - N/A   Clear
12:53 PM 64.9 °F - 8.1 °F 11% 30.08 in 10.0 mi West 5.8 mph - N/A   Clear
1:53 PM 66.9 °F - 10.0 °F 11% 30.06 in 10.0 mi WSW 4.6 mph - N/A   Clear
2:53 PM 68.0 °F - 9.0 °F 10% 30.04 in 10.0 mi Calm Calm - N/A   Clear
3:53 PM 66.0 °F - 10.9 °F 12% 30.04 in 10.0 mi ENE 4.6 mph - N/A   Clear
4:53 PM 60.1 °F - 9.0 °F 13% 30.06 in 10.0 mi Calm Calm - N/A   Clear
5:53 PM 59.0 °F - 14.0 °F 17% 30.08 in 10.0 mi SW 10.4 mph - N/A   Clear
6:53 PM 55.0 °F - 15.1 °F 21% 30.09 in 10.0 mi SSW 13.8 mph - N/A   Clear
7:53 PM 53.1 °F - 15.1 °F 22% 30.08 in 10.0 mi SSW 13.8 mph - N/A   Clear
8:53 PM 51.1 °F - 17.1 °F 26% 30.06 in 10.0 mi WSW 3.5 mph - N/A   Clear
9:53 PM 48.0 °F - 18.0 °F 30% 30.06 in 10.0 mi WSW 13.8 mph - N/A   Clear
10:53 PM 51.1 °F - 21.0 °F 31% 30.04 in 10.0 mi SW 15.0 mph - N/A   Clear
11:53 PM 50.0 °F - 24.1 °F 36% 30.01 in 10.0 mi WSW 13.8 mph - N/A   Clear